, SD

(GMT )
Rapid City

Weather History for KRAP - October, 2013

Change the Weather History Date:

Wednesday, October 30, 2013

  Actual Average Record
Temperature  
Mean Temperature 33 °F 42 °F  
Max Temperature 36 °F 55 °F 85 °F (1950)
Min Temperature 29 °F 29 °F 2 °F (1991)
Degree Days  
Heating Degree Days 32 23  
Month to date heating degree days 664 514  
Since 1 July heating degree days 771 738  
Cooling Degree Days 0 0  
Month to date cooling degree days 0 0  
Year to date cooling degree days 724 633  
Moisture  
Dew Point 30 °F    
Average Humidity 95    
Maximum Humidity 100    
Minimum Humidity 89    
Precipitation  
Precipitation 0.04 in 0.03 in 0.71 in (1974)
Month to date precipitation 5.52 1.39  
Year to date precipitation 20.76 15.31  
Snow  
Snow 0.00 in 0.10 in 2.60 in (1943)
Month to date snowfall 20.8 1.5  
Since 1 July snowfall 20.8 1.7  
Since 1 September snowfall 20.8 1.7  
Snow Depth T in    
Sea Level Pressure  
Sea Level Pressure 29.89 in    
Wind  
Wind Speed 4 mph (SSE)    
Max Wind Speed 18 mph    
Max Gust Speed 22 mph    
Visibility 5 miles    
Events Fog , Rain    
T = Trace of Precipitation, MM = Missing Value Source: NWS Daily Summary

Daily Weather History Graph

Daily Weather History Graph

Search for Another Location

Airport or City:

Trip Planner

Search our weather history database for the weather conditions in past years. The results will help you decide how hot, cold, wet, or windy it might be!

Date:

Astronomy

Oct. 30, 2013 Rise Set
Actual Time 7:26 AM MDT 5:44 PM MDT
Civil Twilight 6:56 AM MDT 6:14 PM MDT
Nautical Twilight 6:22 AM MDT 6:48 PM MDT
Astronomical Twilight 5:48 AM MDT 7:22 PM MDT
Moon 3:09 AM MDT (10/30) 3:38 PM MDT (10/30)
Length of Visible Light 11h 17m
Length of Day
10h 18m
Waning Crescent, 16% of the Moon is Illuminated
Oct 30
Waning Crescent
Nov 3
New
Nov 9
First Quarter
Nov 17
Full
Nov 25
Last Quarter

Hourly Weather History & Observations

Time (MDT) Temp. Windchill Dew Point Humidity Pressure Visibility Wind Dir Wind Speed Gust Speed Precip Events Conditions
12:08 AM 30.2 °F 22.6 °F 28.4 °F 93% 29.95 in 1.8 mi SSE 8.1 mph - N/A   Overcast
12:20 AM 30.2 °F 22.6 °F 28.4 °F 93% 29.94 in 0.8 mi SSE 8.1 mph - N/A   Mist
12:52 AM 30.0 °F 21.1 °F 28.9 °F 96% 30.02 in 0.5 mi SSE 10.4 mph - N/A Fog Light Freezing Fog
1:29 AM 30.2 °F 19.3 °F 28.4 °F 93% 29.93 in 1.2 mi SSE 15.0 mph - N/A   Overcast
1:43 AM 28.4 °F 17.5 °F 28.4 °F 100% 29.93 in 0.8 mi SSE 13.8 mph - N/A   Mist
1:52 AM 28.9 °F 17.7 °F 28.0 °F 96% 30.03 in 0.8 mi SSE 15.0 mph - N/A   Mist
2:36 AM 30.2 °F 19.8 °F 28.4 °F 93% 29.92 in 1.2 mi South 13.8 mph - N/A   Overcast
2:52 AM 30.0 °F 19.1 °F 28.9 °F 96% 30.01 in 1.2 mi South 15.0 mph - N/A   Overcast
3:38 AM 30.2 °F 22.6 °F 28.4 °F 93% 29.87 in 2.0 mi SSE 8.1 mph - N/A   Overcast
3:52 AM 30.0 °F 22.4 °F 28.9 °F 96% 29.96 in 1.0 mi SSE 8.1 mph - N/A   Mist
4:13 AM 30.2 °F 24.3 °F 28.4 °F 93% 29.84 in 0.8 mi SE 5.8 mph - N/A   Mist
4:47 AM 30.2 °F 26.7 °F 28.4 °F 93% 29.85 in 0.2 mi SE 3.5 mph - N/A Fog Light Freezing Fog
4:52 AM 30.0 °F 24.1 °F 28.9 °F 96% 29.95 in 0.5 mi SE 5.8 mph - N/A Fog Light Freezing Fog
5:02 AM 30.2 °F 23.4 °F 28.4 °F 93% 29.86 in 0.2 mi SE 6.9 mph - N/A Fog Light Freezing Fog
5:32 AM 28.4 °F 24.6 °F 28.4 °F 100% 29.87 in 0.2 mi ESE 3.5 mph - N/A Fog Light Freezing Fog
5:52 AM 28.9 °F - 28.0 °F 96% 29.96 in 0.2 mi Calm Calm - N/A Fog Light Freezing Fog
6:52 AM 30.0 °F - 28.9 °F 96% 29.96 in 0.2 mi Calm Calm - N/A Fog Light Freezing Fog
7:22 AM 30.2 °F 22.6 °F 28.4 °F 93% 29.88 in 0.2 mi SSE 8.1 mph - N/A Fog Light Freezing Fog
7:52 AM 30.0 °F 25.2 °F 28.9 °F 96% 29.96 in 0.1 mi SE 4.6 mph - N/A Fog Light Freezing Fog
8:52 AM 30.0 °F - 28.9 °F 96% 29.97 in 0.1 mi Calm Calm - N/A Fog Light Freezing Fog
8:59 AM 30.2 °F 26.7 °F 28.4 °F 93% 29.88 in 1.5 mi WSW 3.5 mph - N/A   Overcast
9:07 AM 30.2 °F 26.7 °F 28.4 °F 93% 29.88 in 0.5 mi WSW 3.5 mph - N/A Fog Light Freezing Fog
9:52 AM 30.9 °F 25.2 °F 28.9 °F 92% 29.94 in 1.0 mi West 5.8 mph - 0.00 in Fog , Rain Light Freezing Rain
9:59 AM 30.2 °F 24.3 °F 28.4 °F 93% 29.84 in 7.0 mi West 5.8 mph - 0.00 in Fog , Rain Light Freezing Rain
10:52 AM 30.9 °F 25.2 °F 30.0 °F 96% 29.92 in 5.0 mi NE 5.8 mph - 0.02 in Rain Light Freezing Rain
11:11 AM 32.0 °F 24.2 °F 30.2 °F 93% 29.82 in 7.0 mi NE 9.2 mph - 0.02 in Rain Light Rain
11:20 AM 32.0 °F 24.2 °F 30.2 °F 93% 29.82 in 9.0 mi ENE 9.2 mph - 0.02 in Rain Light Rain
11:24 AM 32.0 °F 24.8 °F 30.2 °F 93% 29.82 in 10.0 mi ENE 8.1 mph - 0.02 in Rain Light Rain
11:52 AM 32.0 °F 28.7 °F 30.0 °F 92% 29.90 in 10.0 mi ENE 3.5 mph - 0.02 in Rain Light Rain
12:52 PM 33.1 °F - 30.9 °F 92% 29.88 in 10.0 mi Calm Calm - 0.00 in   Overcast
1:52 PM 34.0 °F - 32.0 °F 92% 29.86 in 10.0 mi Calm Calm - N/A   Overcast
2:52 PM 35.1 °F - 32.0 °F 89% 29.84 in 10.0 mi Calm Calm - N/A   Overcast
3:52 PM 36.0 °F 33.3 °F 32.0 °F 86% 29.84 in 10.0 mi North 3.5 mph - N/A   Overcast
4:52 PM 35.1 °F 30.1 °F 32.0 °F 89% 29.85 in 10.0 mi North 5.8 mph - N/A   Overcast
5:43 PM 33.8 °F 30.8 °F 30.2 °F 87% 29.76 in 10.0 mi WSW 3.5 mph - N/A   Overcast
5:52 PM 34.0 °F 29.8 °F 32.0 °F 92% 29.84 in 10.0 mi SW 4.6 mph - N/A   Overcast
6:52 PM 34.0 °F - 32.0 °F 92% 29.84 in 10.0 mi Calm Calm - N/A   Overcast
7:52 PM 35.1 °F - 33.1 °F 92% 29.83 in 10.0 mi Calm Calm - N/A   Overcast
8:52 PM 34.0 °F 31.0 °F 33.1 °F 96% 29.82 in 8.0 mi SE 3.5 mph - N/A   Overcast
9:52 PM 35.1 °F - 34.0 °F 96% 29.82 in 9.0 mi Calm Calm - N/A   Overcast
10:52 PM 36.0 °F - 34.0 °F 93% 29.81 in 9.0 mi Calm Calm - N/A   Overcast
11:52 PM 36.0 °F - 34.0 °F 93% 29.80 in 10.0 mi Calm Calm - N/A   Overcast